Flag for Germany Weather past 2 weeks in Mechernich, North Rhine-Westphalia, Germany

Now
39 °F

Passing clouds.


Feels Like: 33 °F
Forecast: 33 / 36 °F
Wind: 9 mph from Southwest

Location: Noervenich

Current Time: Dec 25, 2014 at 9:46:01 AM

Latest Report: Dec 25, 2014 at 8:20 AM


Visibility: N/A

Pressure: 30.21 "Hg

Humidity: 87%

Dew point: 36 °F

Location of MechernichLocation

Historic Weather in Mechernich — Graph

°F

Mechernich temperature yesterday

Maximum temperature yesterday: 50 °F (at 12:20 PM)
Minimum temperature yesterday: 41 °F (at 11:20 PM)
Average temperature yesterday: 47 °F

Past Weeks' High & Low Weather Summary

 TemperatureHumidityPressure
High55 °F (Dec 18, 3:20 PM)100% (Dec 13, 2:20 AM)30.42 "Hg (Dec 13, 2:20 AM)
Low32 °F (Dec 14, 4:20 AM)67% (Dec 12, 10:20 AM)29.45 "Hg (Dec 12, 2:04 PM)
Average45 °F83%29.96 "Hg
* Reported Dec 10 8:20 AM — Dec 25 8:20 AM, Mechernich, Weather by CustomWeather, © 2014

Note: Actual official high and low records may vary slightly from our data, if they occured in-between our weather recording intervals... More about our weather records

Advertising

Mechernich weather history for previous 24 hours

 ConditionsComfort  
Time TempWeatherWind HumidityBarometerVisibility
8:20 AM
Dec 25
39 °FPassing clouds.9 mph87%30.21 "HgN/A
7:20 AM39 °FChilly.9 mph81%30.18 "HgN/A
6:20 AM39 °FChilly.10 mph81%30.18 "HgN/A
5:20 AM39 °FChilly.9 mph81%30.18 "HgN/A
4:20 AM39 °FChilly.13 mph81%30.15 "HgN/A
3:20 AM41 °FQuite cool.13 mph76%30.18 "HgN/A
2:20 AM41 °FQuite cool.9 mph76%30.15 "HgN/A
1:20 AM41 °FQuite cool.9 mph76%30.15 "HgN/A
12:20 AM41 °FQuite cool.10 mph76%30.15 "HgN/A
11:20 PM
Dec 24
41 °FQuite cool.10 mph87%30.12 "HgN/A
10:20 PM43 °FQuite cool.8 mph87%30.12 "HgN/A
9:20 PM45 °FQuite cool.7 mph87%30.09 "HgN/A
8:20 PM45 °FQuite cool.9 mph93%30.09 "Hg2 mi
7:20 PM45 °FQuite cool.8 mph93%30.07 "Hg4 mi
6:50 PM46 °FLight rain. Fog.7 mph93%30.04 "Hg3 mi
6:20 PM50 °FPartly cloudy.13 mph88%29.98 "Hg6 mi
5:20 PM50 °FPassing clouds.10 mph82%29.98 "HgN/A
4:20 PM50 °FPartly sunny.12 mph82%29.98 "HgN/A
3:20 PM50 °FDrizzle. Broken clouds.9 mph82%29.98 "HgN/A
2:20 PM50 °FBroken clouds.12 mph82%29.98 "HgN/A
1:20 PM50 °FSprinkles. Broken clouds.10 mph82%29.98 "HgN/A
12:20 PM50 °FSprinkles. Broken clouds.14 mph76%30.01 "HgN/A
11:20 AM48 °FBroken clouds.13 mph82%30.01 "HgN/A
10:20 AM48 °FPartly sunny.13 mph82%30.01 "HgN/A
9:20 AM48 °FPartly sunny.16 mph76%30.01 "HgN/A
Weather by CustomWeather, © 2014

See weather overviewHow to use our weather pages